Starlink 32585

operational
NORAD ID: 61953 Int'l Des: 2024-209 Owner: SPXS Country: US Constellation: starlink
LEOCIRCULAR

Starlink 32585について

説明を読み込み中...

リアルタイム位置

3D地球を読み込み中...

次回通過

高度履歴

Altitude vs Time

uPlot chart will show altitude changes over time

軌道要素

1 61953U 24209Q 25305.60556866 .00039719 00000-0 13464-2 0 9997
2 61953 53.1612 17.5533 0001263 60.8093 299.3034 15.30191053 55284
Epoch: Nov 1, 2025 • Age: 12 hours

現在のステータス

高度 482.1 km
速度 7.62 km/s
衛星直下点 -22.26°S, 135.22°E
打ち上げ日 Nov 14, 2024
運用期間 0.9 years
タイプ internet

技術仕様

分類 Payload
質量 730.00 kg
乾燥質量 700.00 kg
総質量 730.00 kg
長さ 0.30 m
直径 4.10 m
スパン 29.00 m
形状 Box + pan
製造者 SPXS
バスタイプ Starlink V2M
フェーズステータス In Orbit
所有者/国 SPXS/US

大規模コンステレーション

Loading constellations...